ANA32 RJOO-RJTT

Flight info

Callsign ANA32
Flight time N/A
Altitude 29000
Route ASUKA SHTLE Y71 XAC
Aircraft B772/H-SDE2E3FGHIJ5LORVWXY/LB1D1

Departure

Time N/A
Airport Osaka Itami International Airport (RJOO)

Arrival

Time 2026-05-01 07:36
Airport Tokyo Haneda International Airport (RJTT)
Time Latitude Longitude Altitude Speed Heading
2026-05-01 07:23 35.18656 140.11499 10767 ft 301 kts 22°
2026-05-01 07:23 35.22472 140.13637 10055 ft 298 kts 22°
2026-05-01 07:24 35.24359 140.14694 9703 ft 297 kts 22°
2026-05-01 07:24 35.26236 140.15747 9353 ft 295 kts 23°
2026-05-01 07:24 35.28120 140.16805 9002 ft 294 kts 23°
2026-05-01 07:24 35.29995 140.17857 8653 ft 293 kts 23°
2026-05-01 07:25 35.31843 140.18896 8310 ft 291 kts 23°
2026-05-01 07:25 35.33675 140.19925 8103 ft 284 kts 23°
2026-05-01 07:25 35.35436 140.20917 8038 ft 273 kts 23°
2026-05-01 07:25 35.37194 140.21742 7951 ft 262 kts
2026-05-01 07:26 35.39021 140.21838 7855 ft 252 kts 355°
2026-05-01 07:26 35.40723 140.21703 7753 ft 246 kts 353°
2026-05-01 07:26 35.42448 140.21526 7648 ft 243 kts 353°
2026-05-01 07:26 35.44150 140.21349 7543 ft 243 kts 353°
2026-05-01 07:27 35.45915 140.21167 7433 ft 242 kts 353°
2026-05-01 07:27 35.47629 140.20990 7326 ft 242 kts 353°
2026-05-01 07:27 35.49374 140.20811 7217 ft 241 kts 353°
2026-05-01 07:27 35.51134 140.20630 7107 ft 241 kts 352°
2026-05-01 07:28 35.52869 140.20439 6998 ft 240 kts 348°
2026-05-01 07:28 35.54544 140.19971 6795 ft 242 kts 342°
2026-05-01 07:28 35.56237 140.19377 6436 ft 247 kts 341°
2026-05-01 07:28 35.57882 140.18652 6113 ft 241 kts 327°
2026-05-01 07:29 35.59073 140.17239 5802 ft 223 kts 303°
2026-05-01 07:29 35.59908 140.15665 5626 ft 213 kts 298°
2026-05-01 07:29 35.60483 140.13979 5455 ft 206 kts 277°
2026-05-01 07:29 35.60538 140.12170 5308 ft 202 kts 265°
2026-05-01 07:30 35.60467 140.10452 5177 ft 201 kts 266°
2026-05-01 07:30 35.60446 140.09302 5087 ft 200 kts 267°
2026-05-01 07:30 35.60442 140.06856 4855 ft 202 kts 268°
2026-05-01 07:30 35.60446 140.05138 4536 ft 202 kts 268°
2026-05-01 07:31 35.60440 139.98140 3304 ft 188 kts 267°
2026-05-01 07:32 35.60430 139.94963 2761 ft 181 kts 267°
2026-05-01 07:32 35.60426 139.93416 2498 ft 177 kts 267°
2026-05-01 07:33 35.60415 139.90449 1991 ft 169 kts 266°
2026-05-01 07:33 35.60411 139.89002 1742 ft 167 kts 266°
2026-05-01 07:33 35.60400 139.86180 1244 ft 159 kts 266°
2026-05-01 07:34 35.60394 139.84877 1036 ft 146 kts 265°
2026-05-01 07:34 35.60272 139.82466 735 ft 137 kts 250°
2026-05-01 07:34 35.59939 139.81332 661 ft 138 kts 240°
2026-05-01 07:35 35.59425 139.80331 548 ft 135 kts 230°
2026-05-01 07:35 35.58829 139.79469 475 ft 129 kts 216°
2026-05-01 07:35 35.58079 139.78798 423 ft 129 kts 211°
2026-05-01 07:35 35.57295 139.78168 237 ft 130 kts 210°
2026-05-01 07:36 35.56557 139.77550 70 ft 128 kts 211°
2026-05-01 07:36 35.55901 139.76985 51 ft 94 kts 214°
2026-05-01 07:36 35.55522 139.76669 50 ft 35 kts 205°
2026-05-01 07:36 35.55367 139.76628 50 ft 11 kts 190°
2026-05-01 07:37 35.55284 139.76700 50 ft 9 kts 80°
2026-05-01 07:37 35.55329 139.76762 50 ft 10 kts 38°
2026-05-01 07:37 35.55393 139.76820 50 ft 12 kts 36°
2026-05-01 07:38 35.55468 139.76883 50 ft 13 kts 33°
2026-05-01 07:38 35.55551 139.76956 50 ft 15 kts 34°
2026-05-01 07:38 35.55624 139.77017 50 ft 0 kts 34°
2026-05-01 07:39 35.55625 139.77017 50 ft 0 kts 34°
2026-05-01 07:39 35.55821 139.77188 50 ft 27 kts 35°
2026-05-01 07:40 35.55958 139.77351 50 ft 28 kts 66°
2026-05-01 07:40 35.56056 139.77562 50 ft 28 kts 60°
2026-05-01 07:40 35.56155 139.77769 50 ft 28 kts 59°
2026-05-01 07:40 35.56251 139.77977 50 ft 23 kts 60°
2026-05-01 07:41 35.56324 139.78131 50 ft 20 kts 60°
2026-05-01 07:41 35.56395 139.78284 50 ft 20 kts 58°
2026-05-01 07:41 35.56379 139.78424 50 ft 10 kts 154°
2026-05-01 07:42 35.56300 139.78477 50 ft 15 kts 149°
2026-05-01 07:42 35.56195 139.78554 50 ft 19 kts 150°
2026-05-01 07:42 35.56077 139.78636 50 ft 19 kts 150°
2026-05-01 07:42 35.55958 139.78722 50 ft 19 kts 150°
2026-05-01 07:43 35.55839 139.78806 50 ft 19 kts 150°
2026-05-01 07:43 35.55717 139.78891 50 ft 20 kts 148°
2026-05-01 07:43 35.55475 139.79060 50 ft 20 kts 150°
2026-05-01 07:44 35.55273 139.79182 50 ft 11 kts 205°
2026-05-01 07:44 35.55241 139.79126 50 ft 0 kts 239°
2026-05-01 07:45 35.55238 139.79121 50 ft 1 kts 239°
2026-05-01 07:45 35.55230 139.79105 50 ft 3 kts 241°
2026-05-01 07:46 35.55220 139.79062 50 ft 7 kts 265°
2026-05-01 07:46 35.55242 139.78999 50 ft 7 kts 281°
2026-05-01 07:46 35.55214 139.78919 50 ft 0 kts 240°